Cloud_Cover
0 0 0 0 0 0 1 61 76 100 100 93 24 15 5 2 0 1 0 0 0 0 1 0 0 0 0 0 0 0 0 0 0 0 0 0 0 0 0 0 0 0 0
0 0 2 0 0 0 0 3 100 100 100 100 100 100 5 4 0 5 0 0 0 0 12 8 0 0 0 0 0 0 0 0 0 0 0 0 1 0 0 0 0 0 0
0 0 0 0 0 0 0 4 5 100 100 100 100 100 47 4 4 56 1 0 0 0 0 0 0 0 0 0 0 0 0 0 0 0 0 0 0 0 0 0 0 0 0
0 0 0 4 0 1 5 5 5 100 100 100 100 100 8 5 51 100 0 0 0 1 1 0 0 0 0 0 0 0 0 0 0 0 0 0 0 1 0 0 0 0 0
0 0 0 1 0 0 0 0 5 100 100 100 100 100 96 5 94 100 5 2 0 3 5 0 0 0 0 0 0 0 0 0 0 0 0 0 0 2 12 0 0 0 4
0 0 20 0 0 0 0 0 4 100 100 100 100 100 87 100 100 19 5 4 2 32 5 0 0 0 0 0 0 0 0 0 0 0 0 0 0 0 0 0 0 0 31
0 0 0 0 0 0 0 0 21 100 98 100 100 100 34 100 100 100 12 8 30 81 5 1 5 2 0 0 5 0 0 0 0 0 0 0 0 0 0 0 0 0 1
4 5 0 10 1 0 0 1 6 100 100 67 9 4 9 11 99 100 33 74 88 11 9 5 5 0 5 0 3 4 5 2 4 0 0 0 0 0 6 5 4 6 5
5 2 0 0 0 8 0 0 14 100 98 5 5 5 5 5 100 86 99 100 48 72 38 6 5 5 5 5 5 2 2 1 4 5 4 3 4 5 17 5 8 98 18
66 5 0 26 26 0 0 5 2 97 20 5 5 5 5 5 5 100 39 100 100 100 100 93 5 5 5 5 5 5 5 0 2 2 0 4 5 5 5 5 7 10 18
100 87 2 17 93 52 7 4 11 10 8 84 6 92 44 5 12 21 14 100 100 100 100 58 40 4 5 5 5 5 5 5 5 5 43 92 47 14 4 5 5 5 5
100 100 11 5 22 90 7 10 3 1 5 43 83 43 38 23 14 5 9 11 54 58 69 79 100 5 5 5 5 5 5 5 5 5 12 59 74 18 78 64 5 2 16
100 100 24 5 37 50 10 20 96 11 5 5 45 71 80 66 60 14 36 76 29 8 6 80 92 41 32 18 8 28 97 99 93 84 51 6 86 100 100 46 95 44 5
100 92 5 75 18 45 47 78 74 67 39 52 11 95 100 18 77 55 28 68 98 24 19 35 69 72 100 99 50 99 99 100 100 67 48 5 5 8 79 90 98 37 100
100 100 5 42 12 17 100 100 96 100 57 89 94 80 75 99 70 82 24 83 96 100 40 67 14 100 100 80 84 52 75 92 100 27 5 8 20 36 16 99 82 34 76
100 85 4 59 48 7 99 100 99 100 83 59 23 60 100 99 38 78 32 53 89 100 58 74 88 100 100 97 100 100 100 96 77 93 11 60 100 82 67 20 84 97 96
99 4 31 5 5 22 21 100 100 95 100 91 19 66 96 100 100 78 36 100 85 100 99 100 100 100 100 99 100 100 100 100 100 94 64 54 72 77 31 90 59 100 99
5 5 56 21 5 31 33 100 91 67 100 100 41 54 48 100 73 64 98 100 100 100 100 100 96 100 100 100 100 100 100 100 100 100 100 98 100 100 100 100 100 63 100
15 5 80 52 5 44 100 100 89 100 100 100 100 91 41 100 100 71 72 98 100 100 100 100 100 94 100 92 100 100 100 100 100 100 100 100 100 100 100 100 100 100 100
100 100 100 48 54 100 100 98 99 100 100 100 100 100 100 100 100 100 88 68 96 87 100 100 84 93 64 97 100 100 100 100 100 100 100 100 100 100 100 100 100 100 100
100 100 100 100 100 100 100 100 100 100 100 100 100 100 100 100 100 100 100 100 100 100 100 100 100 100 100 100 100 100 100 100 100 100 100 100 100 100 100 100 100 100 100
100 100 100 100 100 100 100 100 100 100 100 100 100 100 100 100 100 100 100 100 100 100 100 100 100 100 100 100 100 100 100 100 100 100 100 100 100 100 100 100 100 100 100
100 100 100 100 100 100 100 100 94 100 100 100 100 100 100 100 98 74 90 100 100 100 100 100 100 100 100 100 100 100 100 100 100 100 100 100 100 100 100 100 100 100 100
98 100 100 100 100 100 100 100 100 100 100 100 100 100 100 100 100 100 100 100 100 100 100 100 100 100 100 100 100 100 100 100 100 100 100 100 100 100 100 100 100 100 100
100 100 100 100 100 100 100 100 100 100 100 100 100 100 100 100 100 100 100 100 100 100 100 100 100 100 100 100 100 100 100 100 100 100 100 100 100 100 100 100 100 100 100
100 100 100 100 100 100 100 100 91 100 100 100 100 100 100 100 100 100 100 100 100 100 100 100 100 100 100 100 100 100 100 100 100 100 97 100 100 100 100 100 100 100 100